This is the latest recevied weather packets stored in our database for station/object N3TTT-13. If no packets are shown the sender has not sent any weather packets the latest 10 day(s).
| Time | Temp. | Humidity | Pressure | Rain* | Wind** | Luminosity | Snow |
|---|---|---|---|---|---|---|---|
| 1777766104 | 11.67° C | 59% | 1011.6 hPa | 0 mm | - | 0 W/m² | - |
| 1777765802 | 11.67° C | 58% | 1011.7 hPa | 0 mm | - | 1 W/m² | - |
| 1777765498 | 12.22° C | 56% | 1011.6 hPa | 0 mm | - | 2 W/m² | - |
| 1777765195 | 12.78° C | 52% | 1011.7 hPa | 0 mm | - | 5 W/m² | - |
| 1777764890 | 12.78° C | 50% | 1011.5 hPa | 0 mm | - | 7 W/m² | - |
| 1777764587 | 12.78° C | 49% | 1011.5 hPa | 0 mm | - | 9 W/m² | - |
| 1777764284 | 13.33° C | 50% | 1011.5 hPa | 0 mm | - | 12 W/m² | - |
| 1777763981 | 13.33° C | 50% | 1011.6 hPa | 0 mm | - | 15 W/m² | - |
| 1777763678 | 13.33° C | 49% | 1011.5 hPa | 0 mm | - | 18 W/m² | - |
| 1777763376 | 13.33° C | 47% | 1011.5 hPa | 0 mm | - | 20 W/m² | - |
| 1777763074 | 13.89° C | 46% | 1011.4 hPa | 0 mm | - | 24 W/m² | - |
| 1777762772 | 13.89° C | 48% | 1011.6 hPa | 0 mm | - | 34 W/m² | - |
| 1777762467 | 13.89° C | 48% | 1011.6 hPa | 0 mm | - | 31 W/m² | - |
| 1777762165 | 13.89° C | 47% | 1011.4 hPa | 0 mm | - | 41 W/m² | - |
| 1777761860 | 13.89° C | 47% | 1011.6 hPa | 0 mm | - | 39 W/m² | - |
| 1777761557 | 13.89° C | 46% | 1011.6 hPa | 0 mm | - | 41 W/m² | - |
| 1777761256 | 14.44° C | 47% | 1011.4 hPa | 0 mm | - | 53 W/m² | - |
| 1777760954 | 14.44° C | 46% | 1011.5 hPa | 0 mm | - | 58 W/m² | - |
| 1777760651 | 14.44° C | 48% | 1011.5 hPa | 0 mm | - | 71 W/m² | - |
| 1777760351 | 14.44° C | 46% | 1011.6 hPa | 0 mm | - | 72 W/m² | - |
| 1777760048 | 14.44° C | 44% | 1011.4 hPa | 0 mm | - | 68 W/m² | - |
| 1777759745 | 14.44° C | 44% | 1011.5 hPa | 0 mm | - | 68 W/m² | - |
| 1777759441 | 14.44° C | 44% | 1011.3 hPa | 0 mm | - | 70 W/m² | - |
| 1777759137 | 14.44° C | 45% | 1011.6 hPa | 0 mm | - | 92 W/m² | - |
| 1777758835 | 14.44° C | 46% | 1011.6 hPa | 0 mm | - | 94 W/m² | - |
* Rain latest hour (hover to see other rain measurements)
** Current wind speed in m/s (hover to see current wind gust speed)